Tracking 33068 objects as of 24-Jan-2026
HD Live streaming from Space Station
objects crossing your sky now

TITAN 34D R/B(2)

Track TITAN 34D R/B(2) now!


NORAD ID: 19983
Int'l Code: 1989-035C
Perigee: 31,564.4 km
Apogee: 40,500.1 km
Inclination: 8.1 °
Period: 1,448.3 minutes
Semi major axis: 42403 km
RCS: Unknown
Launch date: May 10, 1989
Source: United States (US)
Launch site: AIR FORCE EASTERN TEST RANGE (AFETR)

Note: This is a ROCKET BODY
Your satellite tracking list
Your tracking list is empty




NASA's NSSDC Master Catalog

Two Line Element Set (TLE):
1 19983U 89035C   26023.38461477 -.00000310  00000-0  00000-0 0  9993
2 19983   8.1433   5.0703 1053652  54.1169 315.3001  0.99427007 24056
Source of the keplerian elements: McCants